Location: Azul
(36.7830°S, 59.8500°W)
Time: 04:23:53
(UTC-03:00)

ISS - Pass Details

Date: 26 April 2017
Orbit: 401 x 409 km, 51.6° (Epoch: 29 April)

Event Time Altitude Azimuth Distance (km) Brightness Sun altitude
Rises 19:43:03 0° 338° (NNW) 2,323 0.4 -17.3°
Reaches altitude 10° 19:45:20 10° 352° (N) 1,472 -0.9 -17.8°
Enters shadow 19:47:05 21° 20° (NNE) 984 -2.1 -18.1°
